Time,TemperatureF,DewpointF,PressureIn,WindDirection,WindDirectionDegrees,WindSpeedMPH,WindSpeedGustMPH,Humidity,HourlyPrecipIn,Conditions,Clouds,dailyrainin,SoftwareType,DateUTC
2013-04-18 00:04:00,39.9,17.6,29.85,NW,317,0.9,6.9,40,0.00,,,0.00,meteobridge,2013-04-18 06:04:00,
2013-04-18 00:09:00,40.5,16.9,29.86,NW,321,0.9,6.0,38,0.00,,,0.00,meteobridge,2013-04-18 06:09:00,
2013-04-18 00:14:00,40.6,17.1,29.86,NNW,329,0.9,2.9,38,0.00,,,0.00,meteobridge,2013-04-18 06:14:00,
2013-04-18 00:19:00,40.6,17.1,29.87,NW,311,0.9,4.0,38,0.00,,,0.00,meteobridge,2013-04-18 06:19:00,
2013-04-18 00:24:00,40.5,16.9,29.87,NW,321,0.0,2.0,38,0.00,,,0.00,meteobridge,2013-04-18 06:24:00,
2013-04-18 00:29:00,40.5,16.9,29.87,North,350,2.9,6.0,38,0.00,,,0.00,meteobridge,2013-04-18 06:29:00,
2013-04-18 00:34:00,40.3,16.7,29.87,NW,306,4.0,4.9,38,0.00,,,0.00,meteobridge,2013-04-18 06:34:00,
2013-04-18 00:39:00,40.3,16.7,29.88,NW,324,2.0,4.0,38,0.00,,,0.00,meteobridge,2013-04-18 06:39:00,
2013-04-18 00:44:00,40.3,16.7,29.88,West,265,0.0,4.0,38,0.00,,,0.00,meteobridge,2013-04-18 06:44:00,
2013-04-18 00:49:00,40.3,16.7,29.88,WSW,255,0.9,2.9,38,0.00,,,0.00,meteobridge,2013-04-18 06:49:00,
2013-04-18 00:54:00,39.9,16.9,29.88,West,277,0.9,2.9,39,0.00,,,0.00,meteobridge,2013-04-18 06:54:00,
2013-04-18 00:59:00,39.9,16.9,29.88,WNW,294,2.0,2.9,39,0.00,,,0.00,meteobridge,2013-04-18 06:59:00,
2013-04-18 01:04:00,39.7,16.9,29.88,NW,317,0.0,2.9,39,0.00,,,0.00,meteobridge,2013-04-18 07:04:00,
2013-04-18 01:09:00,39.6,16.7,29.88,NNW,331,2.9,2.9,39,0.00,,,0.00,meteobridge,2013-04-18 07:09:00,
2013-04-18 01:14:00,39.2,16.3,29.89,WNW,300,0.9,4.0,39,0.00,,,0.00,meteobridge,2013-04-18 07:14:00,
2013-04-18 01:19:00,39.0,16.7,29.89,NW,317,2.0,2.0,40,0.00,,,0.00,meteobridge,2013-04-18 07:19:00,
2013-04-18 01:24:00,38.8,16.5,29.89,NW,304,0.0,4.9,40,0.00,,,0.00,meteobridge,2013-04-18 07:24:00,
2013-04-18 01:29:00,38.7,16.3,29.89,WNW,296,2.0,4.9,40,0.00,,,0.00,meteobridge,2013-04-18 07:29:00,
2013-04-18 01:34:00,38.5,16.3,29.89,WNW,294,0.0,4.0,40,0.00,,,0.00,meteobridge,2013-04-18 07:34:00,
2013-04-18 01:39:00,38.1,16.0,29.89,NW,316,0.0,4.9,40,0.00,,,0.00,meteobridge,2013-04-18 07:39:00,
2013-04-18 01:44:00,38.3,15.4,29.89,NW,321,2.9,4.0,39,0.00,,,0.00,meteobridge,2013-04-18 07:44:00,
2013-04-18 01:50:00,38.1,15.3,29.90,WNW,299,0.9,2.9,39,0.00,,,0.00,meteobridge,2013-04-18 07:50:00,
2013-04-18 01:55:00,38.1,16.0,29.90,NW,325,0.9,2.9,40,0.00,,,0.00,meteobridge,2013-04-18 07:55:00,
2013-04-18 02:00:00,37.9,15.8,29.90,NW,317,0.9,0.9,40,0.00,,,0.00,meteobridge,2013-04-18 08:00:00,
2013-04-18 02:05:00,37.8,15.6,29.90,NW,317,0.9,0.9,40,0.00,,,0.00,meteobridge,2013-04-18 08:05:00,
2013-04-18 02:10:00,37.6,15.4,29.90,WSW,257,0.9,8.9,40,0.00,,,0.00,meteobridge,2013-04-18 08:10:00,
2013-04-18 02:15:00,37.8,15.1,29.90,NW,317,0.9,2.0,39,0.00,,,0.00,meteobridge,2013-04-18 08:15:00,
2013-04-18 02:20:00,37.6,14.9,29.90,NNW,331,0.9,0.9,39,0.00,,,0.00,meteobridge,2013-04-18 08:20:00,
2013-04-18 02:25:00,37.2,15.1,29.90,NNW,333,0.9,2.0,40,0.00,,,0.00,meteobridge,2013-04-18 08:25:00,
2013-04-18 02:30:00,37.0,14.9,29.90,NNW,344,2.0,4.0,40,0.00,,,0.00,meteobridge,2013-04-18 08:30:00,
2013-04-18 02:35:00,36.9,14.7,29.90,NNW,334,2.0,6.0,40,0.00,,,0.00,meteobridge,2013-04-18 08:35:00,
2013-04-18 02:40:00,36.9,14.2,29.90,NNW,336,2.0,2.9,39,0.00,,,0.00,meteobridge,2013-04-18 08:40:00,
2013-04-18 02:45:00,36.7,14.5,29.90,North,355,0.9,0.9,40,0.00,,,0.00,meteobridge,2013-04-18 08:45:00,
2013-04-18 02:51:00,36.3,13.6,29.90,NW,323,4.0,6.0,39,0.00,,,0.00,meteobridge,2013-04-18 08:51:00,
2013-04-18 02:56:00,36.5,12.7,29.90,NW,323,4.9,4.9,37,0.00,,,0.00,meteobridge,2013-04-18 08:56:00,
2013-04-18 03:01:00,36.5,12.7,29.90,NW,313,2.9,8.1,37,0.00,,,0.00,meteobridge,2013-04-18 09:01:00,
2013-04-18 03:06:00,36.3,12.6,29.90,North,0,0.9,2.9,37,0.00,,,0.00,meteobridge,2013-04-18 09:06:00,
2013-04-18 03:11:00,36.1,11.8,29.90,NNW,332,2.0,4.0,36,0.00,,,0.00,meteobridge,2013-04-18 09:11:00,
2013-04-18 03:16:00,36.1,12.4,29.90,NNW,332,6.0,6.0,37,0.00,,,0.00,meteobridge,2013-04-18 09:16:00,
2013-04-18 03:21:00,36.1,12.4,29.90,NNW,330,4.0,8.1,37,0.00,,,0.00,meteobridge,2013-04-18 09:21:00,
2013-04-18 03:26:00,36.0,11.7,29.90,NNW,329,2.9,4.9,36,0.00,,,0.00,meteobridge,2013-04-18 09:26:00,
2013-04-18 03:31:00,36.0,12.2,29.90,NNW,334,4.0,4.9,37,0.00,,,0.00,meteobridge,2013-04-18 09:31:00,
2013-04-18 03:36:00,35.8,12.0,29.90,NNW,335,0.9,2.0,37,0.00,,,0.00,meteobridge,2013-04-18 09:36:00,
2013-04-18 03:41:00,35.6,11.8,29.91,NW,306,2.9,8.9,37,0.00,,,0.00,meteobridge,2013-04-18 09:41:00,
2013-04-18 03:46:00,35.4,11.7,29.91,NW,308,2.0,4.0,37,0.00,,,0.00,meteobridge,2013-04-18 09:46:00,
2013-04-18 03:51:00,35.4,12.4,29.91,NW,321,2.0,2.9,38,0.00,,,0.00,meteobridge,2013-04-18 09:51:00,
2013-04-18 03:56:00,35.4,11.7,29.91,NW,320,2.9,4.9,37,0.00,,,0.00,meteobridge,2013-04-18 09:56:00,
2013-04-18 04:01:00,35.4,11.7,29.91,West,268,0.9,2.9,37,0.00,,,0.00,meteobridge,2013-04-18 10:01:00,
2013-04-18 04:06:00,35.2,12.2,29.91,WNW,300,0.0,0.9,38,0.00,,,0.00,meteobridge,2013-04-18 10:06:00,
2013-04-18 04:11:00,35.1,12.0,29.91,NW,317,0.0,4.0,38,0.00,,,0.00,meteobridge,2013-04-18 10:11:00,
2013-04-18 04:16:00,34.9,12.4,29.92,WNW,303,2.9,2.9,39,0.00,,,0.00,meteobridge,2013-04-18 10:16:00,
2013-04-18 04:21:00,34.7,12.2,29.92,NW,323,0.0,0.0,39,0.00,,,0.00,meteobridge,2013-04-18 10:21:00,
2013-04-18 04:26:00,34.5,12.0,29.92,NW,306,0.0,0.9,39,0.00,,,0.00,meteobridge,2013-04-18 10:26:00,
2013-04-18 04:32:00,34.0,11.7,29.92,WSW,257,0.0,2.0,39,0.00,,,0.00,meteobridge,2013-04-18 10:32:00,
2013-04-18 04:37:00,33.6,11.8,29.92,WSW,252,0.0,0.9,40,0.00,,,0.00,meteobridge,2013-04-18 10:37:00,
2013-04-18 04:42:00,33.4,11.7,29.92,West,274,0.0,2.0,40,0.00,,,0.00,meteobridge,2013-04-18 10:42:00,
2013-04-18 04:47:00,33.6,11.8,29.92,NW,318,0.9,2.0,40,0.00,,,0.00,meteobridge,2013-04-18 10:47:00,
2013-04-18 04:53:00,33.8,11.5,29.92,NW,317,0.0,4.0,39,0.00,,,0.00,meteobridge,2013-04-18 10:53:00,
2013-04-18 04:58:00,33.6,11.3,29.92,West,277,0.0,4.0,39,0.00,,,0.00,meteobridge,2013-04-18 10:58:00,
2013-04-18 05:03:00,33.4,11.1,29.93,WNW,282,0.9,2.9,39,0.00,,,0.00,meteobridge,2013-04-18 11:03:00,
2013-04-18 05:08:00,33.4,11.1,29.93,WNW,286,0.0,2.0,39,0.00,,,0.00,meteobridge,2013-04-18 11:08:00,
2013-04-18 05:13:00,33.4,11.7,29.93,WNW,295,0.0,0.9,40,0.00,,,0.00,meteobridge,2013-04-18 11:13:00,
2013-04-18 05:18:00,33.3,10.9,29.93,West,267,2.0,4.9,39,0.00,,,0.00,meteobridge,2013-04-18 11:18:00,
2013-04-18 05:23:00,33.4,10.0,29.93,WNW,283,0.9,4.9,37,0.00,,,0.00,meteobridge,2013-04-18 11:23:00,
2013-04-18 05:28:00,33.4,10.6,29.93,West,271,0.9,6.9,38,0.00,,,0.00,meteobridge,2013-04-18 11:28:00,
2013-04-18 05:33:00,33.4,10.0,29.93,West,279,2.0,2.0,37,0.00,,,0.00,meteobridge,2013-04-18 11:33:00,
2013-04-18 05:38:00,33.3,10.4,29.94,NNW,347,6.0,6.0,38,0.00,,,0.00,meteobridge,2013-04-18 11:38:00,
2013-04-18 05:43:00,33.3,9.9,29.94,NNW,344,4.0,6.0,37,0.00,,,0.00,meteobridge,2013-04-18 11:43:00,
2013-04-18 05:48:00,33.4,10.6,29.94,NNW,331,0.9,2.9,38,0.00,,,0.00,meteobridge,2013-04-18 11:48:00,
2013-04-18 05:53:00,33.3,9.1,29.95,NNW,337,2.9,4.9,36,0.00,,,0.00,meteobridge,2013-04-18 11:53:00,
2013-04-18 05:58:00,33.1,7.7,29.95,North,0,0.9,6.9,34,0.00,,,0.00,meteobridge,2013-04-18 11:58:00,
2013-04-18 06:03:00,33.1,7.7,29.96,NNE,23,4.0,6.0,34,0.00,,,0.00,meteobridge,2013-04-18 12:03:00,
2013-04-18 06:08:00,33.1,7.7,29.96,WNW,300,2.0,10.1,34,0.00,,,0.00,meteobridge,2013-04-18 12:08:00,
2013-04-18 06:13:00,32.9,7.5,29.96,NW,323,4.0,6.0,34,0.00,,,0.00,meteobridge,2013-04-18 12:13:00,
2013-04-18 06:18:00,32.5,7.3,29.96,NW,312,0.0,2.9,34,0.00,,,0.00,meteobridge,2013-04-18 12:18:00,
2013-04-18 06:23:00,32.4,7.2,29.96,NW,305,2.9,4.0,34,0.00,,,0.00,meteobridge,2013-04-18 12:23:00,
2013-04-18 06:29:00,32.2,7.0,29.96,NW,312,2.0,2.0,34,0.00,,,0.00,meteobridge,2013-04-18 12:29:00,
2013-04-18 06:34:00,31.8,7.3,29.96,WNW,298,0.0,2.0,35,0.00,,,0.00,meteobridge,2013-04-18 12:34:00,
2013-04-18 06:39:00,31.6,7.2,29.97,NW,326,2.9,4.9,35,0.00,,,0.00,meteobridge,2013-04-18 12:39:00,
2013-04-18 06:44:00,31.6,7.2,29.97,NW,310,0.9,4.9,35,0.00,,,0.00,meteobridge,2013-04-18 12:44:00,
2013-04-18 06:49:00,31.6,7.2,29.98,West,269,0.0,0.0,35,0.00,,,0.00,meteobridge,2013-04-18 12:49:00,
2013-04-18 06:54:00,31.5,7.5,29.98,North,5,0.0,2.9,36,0.00,,,0.00,meteobridge,2013-04-18 12:54:00,
2013-04-18 07:00:00,31.5,7.5,29.98,NNW,341,2.0,4.0,36,0.00,,,0.00,meteobridge,2013-04-18 13:00:00,
2013-04-18 07:05:00,31.6,7.2,29.98,NW,315,2.0,2.9,35,0.00,,,0.00,meteobridge,2013-04-18 13:05:00,
2013-04-18 07:10:00,32.0,6.8,29.98,NW,309,2.0,2.0,34,0.00,,,0.00,meteobridge,2013-04-18 13:10:00,
2013-04-18 07:15:00,32.4,7.2,29.99,WNW,282,2.0,2.0,34,0.00,,,0.00,meteobridge,2013-04-18 13:15:00,
2013-04-18 07:20:00,32.5,7.3,29.99,NW,317,0.9,4.9,34,0.00,,,0.00,meteobridge,2013-04-18 13:20:00,
2013-04-18 07:25:00,32.7,6.8,30.00,NW,321,0.9,4.0,33,0.00,,,0.00,meteobridge,2013-04-18 13:25:00,
2013-04-18 07:30:00,32.9,7.0,30.00,NW,305,2.0,2.9,33,0.00,,,0.00,meteobridge,2013-04-18 13:30:00,
2013-04-18 07:35:00,33.1,7.2,30.01,North,10,2.9,10.1,33,0.00,,,0.00,meteobridge,2013-04-18 13:35:00,
2013-04-18 07:40:00,33.1,7.2,30.01,NNW,338,4.9,10.1,33,0.00,,,0.00,meteobridge,2013-04-18 13:40:00,
2013-04-18 07:45:00,33.3,7.3,30.01,WNW,290,2.0,8.1,33,0.00,,,0.00,meteobridge,2013-04-18 13:45:00,
2013-04-18 07:50:00,33.4,6.8,30.01,NW,311,0.0,6.0,32,0.00,,,0.00,meteobridge,2013-04-18 13:50:00,
2013-04-18 07:55:00,34.0,7.2,30.01,NW,317,2.9,2.9,32,0.00,,,0.00,meteobridge,2013-04-18 13:55:00,
2013-04-18 08:00:00,34.2,6.6,30.02,NNW,335,2.0,4.9,31,0.00,,,0.00,meteobridge,2013-04-18 14:00:00,
2013-04-18 08:05:00,34.5,7.0,30.02,NNW,346,2.9,4.0,31,0.00,,,0.00,meteobridge,2013-04-18 14:05:00,
2013-04-18 08:10:00,34.9,6.6,30.02,NNW,328,4.0,6.0,30,0.00,,,0.00,meteobridge,2013-04-18 14:10:00,
2013-04-18 08:15:00,35.1,6.8,30.02,NNW,338,8.9,13.0,30,0.00,,,0.00,meteobridge,2013-04-18 14:15:00,
2013-04-18 08:20:00,35.2,7.0,30.02,NNW,344,0.0,6.0,30,0.00,,,0.00,meteobridge,2013-04-18 14:20:00,
2013-04-18 08:25:00,35.6,6.4,30.02,WNW,301,2.0,6.9,29,0.00,,,0.00,meteobridge,2013-04-18 14:25:00,
2013-04-18 08:30:00,35.6,6.4,30.03,WNW,286,2.0,8.9,29,0.00,,,0.00,meteobridge,2013-04-18 14:30:00,
2013-04-18 08:35:00,35.8,6.6,30.03,North,355,6.9,8.9,29,0.00,,,0.00,meteobridge,2013-04-18 14:35:00,
2013-04-18 08:40:00,36.1,7.0,30.03,North,9,2.9,6.0,29,0.00,,,0.00,meteobridge,2013-04-18 14:40:00,
2013-04-18 08:46:00,36.3,7.2,30.03,NW,323,2.9,6.0,29,0.00,,,0.00,meteobridge,2013-04-18 14:46:00,
2013-04-18 08:51:00,36.9,6.8,30.03,NW,309,2.0,4.9,28,0.00,,,0.00,meteobridge,2013-04-18 14:51:00,
2013-04-18 08:56:00,37.0,7.0,30.03,NW,318,0.9,6.0,28,0.00,,,0.00,meteobridge,2013-04-18 14:56:00,
2013-04-18 09:01:00,37.8,6.8,30.03,NW,311,2.9,4.0,27,0.00,,,0.00,meteobridge,2013-04-18 15:01:00,
2013-04-18 09:06:00,38.5,6.6,30.03,NW,315,2.0,6.0,26,0.00,,,0.00,meteobridge,2013-04-18 15:06:00,
2013-04-18 09:11:00,37.9,7.0,30.03,WNW,297,0.9,4.9,27,0.00,,,0.00,meteobridge,2013-04-18 15:11:00,
2013-04-18 09:16:00,38.7,7.5,30.03,ENE,63,4.0,8.1,27,0.00,,,0.00,meteobridge,2013-04-18 15:16:00,
2013-04-18 09:21:00,38.8,6.8,30.03,NW,316,2.9,4.9,26,0.00,,,0.00,meteobridge,2013-04-18 15:21:00,
2013-04-18 09:26:00,38.7,6.8,30.03,North,0,8.1,8.1,26,0.00,,,0.00,meteobridge,2013-04-18 15:26:00,
2013-04-18 09:31:00,39.4,7.3,30.03,NE,45,4.9,8.1,26,0.00,,,0.00,meteobridge,2013-04-18 15:31:00,
2013-04-18 09:36:00,39.6,7.5,30.03,North,5,2.0,8.9,26,0.00,,,0.00,meteobridge,2013-04-18 15:36:00,
2013-04-18 09:41:00,39.7,6.8,30.03,WNW,283,2.0,4.0,25,0.00,,,0.00,meteobridge,2013-04-18 15:41:00,
2013-04-18 09:46:00,41.4,7.3,30.03,NW,324,2.0,10.1,24,0.00,,,0.00,meteobridge,2013-04-18 15:46:00,
2013-04-18 09:51:00,41.2,6.3,30.03,NNE,13,13.0,13.0,23,0.00,,,0.00,meteobridge,2013-04-18 15:51:00,
2013-04-18 09:56:00,40.6,5.7,30.02,NW,315,2.0,12.1,23,0.00,,,0.00,meteobridge,2013-04-18 15:56:00,
2013-04-18 10:01:00,41.2,6.3,30.03,NNW,337,2.9,6.0,23,0.00,,,0.00,meteobridge,2013-04-18 16:01:00,
2013-04-18 10:06:00,41.2,6.3,30.03,North,355,8.9,10.1,23,0.00,,,0.00,meteobridge,2013-04-18 16:06:00,
2013-04-18 10:11:00,41.2,6.3,30.03,WNW,291,2.9,11.0,23,0.00,,,0.00,meteobridge,2013-04-18 16:11:00,
2013-04-18 10:16:00,42.1,7.0,30.03,WNW,289,4.0,6.0,23,0.00,,,0.00,meteobridge,2013-04-18 16:16:00,
2013-04-18 10:21:00,41.9,5.7,30.03,NW,319,4.0,6.9,22,0.00,,,0.00,meteobridge,2013-04-18 16:21:00,
2013-04-18 10:26:00,42.1,5.9,30.03,WNW,292,4.0,8.1,22,0.00,,,0.00,meteobridge,2013-04-18 16:26:00,
2013-04-18 10:31:00,42.6,5.4,30.03,WNW,300,4.0,8.1,21,0.00,,,0.00,meteobridge,2013-04-18 16:31:00,
2013-04-18 10:36:00,43.0,5.7,30.03,West,271,4.9,11.0,21,0.00,,,0.00,meteobridge,2013-04-18 16:36:00,
2013-04-18 10:41:00,43.3,6.1,30.03,NW,309,6.0,8.9,21,0.00,,,0.00,meteobridge,2013-04-18 16:41:00,
2013-04-18 10:46:00,43.2,5.9,30.03,NW,320,6.0,6.9,21,0.00,,,0.00,meteobridge,2013-04-18 16:46:00,
2013-04-18 10:51:00,44.1,4.5,30.02,West,269,2.0,8.9,19,0.00,,,0.00,meteobridge,2013-04-18 16:51:00,
2013-04-18 10:56:00,44.2,6.8,30.03,NW,313,11.0,13.0,21,0.00,,,0.00,meteobridge,2013-04-18 16:56:00,
2013-04-18 11:01:00,44.2,5.7,30.03,WNW,286,4.9,8.1,20,0.00,,,0.00,meteobridge,2013-04-18 17:01:00,
2013-04-18 11:06:00,44.4,5.9,30.03,West,275,4.9,10.1,20,0.00,,,0.00,meteobridge,2013-04-18 17:06:00,
2013-04-18 11:12:00,44.4,4.6,30.03,West,278,8.1,8.9,19,0.00,,,0.00,meteobridge,2013-04-18 17:12:00,
2013-04-18 11:17:00,45.1,5.4,30.03,NNW,340,4.9,8.9,19,0.00,,,0.00,meteobridge,2013-04-18 17:17:00,
2013-04-18 11:22:00,45.5,5.5,30.03,NNW,345,2.0,10.1,19,0.00,,,0.00,meteobridge,2013-04-18 17:22:00,
2013-04-18 11:27:00,45.7,5.7,30.03,SW,228,8.1,12.1,19,0.00,,,0.00,meteobridge,2013-04-18 17:27:00,
2013-04-18 11:32:00,45.1,5.4,30.03,WNW,293,2.0,8.1,19,0.00,,,0.00,meteobridge,2013-04-18 17:32:00,
2013-04-18 11:37:00,45.9,5.9,30.03,West,275,2.9,10.1,19,0.00,,,0.00,meteobridge,2013-04-18 17:37:00,
2013-04-18 11:42:00,46.2,5.0,30.04,WNW,302,4.9,6.9,18,0.00,,,0.00,meteobridge,2013-04-18 17:42:00,
2013-04-18 11:47:00,46.0,4.8,30.03,West,273,2.9,8.9,18,0.00,,,0.00,meteobridge,2013-04-18 17:47:00,
2013-04-18 11:52:00,46.4,5.2,30.03,SW,227,4.9,8.9,18,0.00,,,0.00,meteobridge,2013-04-18 17:52:00,
2013-04-18 11:57:00,47.1,4.5,30.03,West,281,2.9,10.1,17,0.00,,,0.00,meteobridge,2013-04-18 17:57:00,
2013-04-18 12:02:00,47.7,3.6,30.03,WSW,257,4.0,8.1,16,0.00,,,0.00,meteobridge,2013-04-18 18:02:00,
2013-04-18 12:07:00,47.8,5.2,30.03,NW,325,2.9,8.9,17,0.00,,,0.00,meteobridge,2013-04-18 18:07:00,
2013-04-18 12:12:00,46.8,4.3,30.03,WNW,292,4.0,8.1,17,0.00,,,0.00,meteobridge,2013-04-18 18:12:00,
2013-04-18 12:17:00,46.8,2.8,30.03,NW,321,2.9,4.9,16,0.00,,,0.00,meteobridge,2013-04-18 18:17:00,
2013-04-18 12:22:00,46.9,4.5,30.03,West,265,0.9,6.9,17,0.00,,,0.00,meteobridge,2013-04-18 18:22:00,
2013-04-18 12:27:00,47.5,2.1,30.03,West,275,4.0,10.1,15,0.00,,,0.00,meteobridge,2013-04-18 18:27:00,
2013-04-18 12:32:00,47.3,1.9,30.03,WNW,302,4.0,10.1,15,0.00,,,0.00,meteobridge,2013-04-18 18:32:00,
2013-04-18 12:37:00,47.8,3.7,30.03,NW,323,2.9,8.1,16,0.00,,,0.00,meteobridge,2013-04-18 18:37:00,
2013-04-18 12:42:00,47.8,2.5,30.03,WNW,295,6.9,8.9,15,0.00,,,0.00,meteobridge,2013-04-18 18:42:00,
2013-04-18 12:47:00,46.2,2.5,30.03,NW,313,2.9,8.9,16,0.00,,,0.00,meteobridge,2013-04-18 18:47:00,
2013-04-18 12:52:00,47.5,2.1,30.03,NW,309,2.9,15.0,15,0.00,,,0.00,meteobridge,2013-04-18 18:52:00,
2013-04-18 12:57:00,47.7,2.3,30.03,SW,231,4.0,6.9,15,0.00,,,0.00,meteobridge,2013-04-18 18:57:00,
2013-04-18 13:02:00,48.4,2.8,30.03,North,350,10.1,10.1,15,0.00,,,0.00,meteobridge,2013-04-18 19:02:00,
2013-04-18 13:07:00,48.4,2.8,30.03,NW,319,4.0,6.0,15,0.00,,,0.00,meteobridge,2013-04-18 19:07:00,
2013-04-18 13:12:00,48.7,3.2,30.03,WNW,298,6.0,10.1,15,0.00,,,0.00,meteobridge,2013-04-18 19:12:00,
2013-04-18 13:17:00,47.7,0.7,30.03,West,280,4.0,13.0,14,0.00,,,0.00,meteobridge,2013-04-18 19:17:00,
2013-04-18 13:22:00,47.7,0.7,30.03,NNW,334,4.9,8.1,14,0.00,,,0.00,meteobridge,2013-04-18 19:22:00,
2013-04-18 13:27:00,48.4,-0.2,30.04,WNW,294,8.9,8.9,13,0.00,,,0.00,meteobridge,2013-04-18 19:27:00,
2013-04-18 13:32:00,48.9,1.8,30.03,WNW,290,4.0,11.0,14,0.00,,,0.00,meteobridge,2013-04-18 19:32:00,
2013-04-18 13:37:00,49.6,3.9,30.03,WSW,245,6.0,12.1,15,0.00,,,0.00,meteobridge,2013-04-18 19:37:00,
2013-04-18 13:42:00,49.5,3.7,30.03,WSW,252,2.9,14.1,15,0.00,,,0.00,meteobridge,2013-04-18 19:42:00,
2013-04-18 13:47:00,48.7,3.2,30.03,WNW,287,2.0,8.1,15,0.00,,,0.00,meteobridge,2013-04-18 19:47:00,
2013-04-18 13:52:00,49.8,2.5,30.03,West,274,4.9,11.0,14,0.00,,,0.00,meteobridge,2013-04-18 19:52:00,
2013-04-18 13:57:00,50.0,2.7,30.04,NNW,343,6.9,10.1,14,0.00,,,0.00,meteobridge,2013-04-18 19:57:00,
2013-04-18 14:02:00,49.8,0.9,30.03,NNW,331,4.9,8.9,13,0.00,,,0.00,meteobridge,2013-04-18 20:02:00,
2013-04-18 14:07:00,50.4,-2.2,30.04,WSW,254,6.0,14.1,11,0.00,,,0.00,meteobridge,2013-04-18 20:07:00,
2013-04-18 14:13:00,50.5,3.0,30.04,WNW,283,4.9,8.9,14,0.00,,,0.00,meteobridge,2013-04-18 20:13:00,
2013-04-18 14:18:00,49.8,2.5,30.03,NNW,331,6.0,11.0,14,0.00,,,0.00,meteobridge,2013-04-18 20:18:00,
2013-04-18 14:23:00,49.1,1.9,30.04,NW,319,2.9,10.1,14,0.00,,,0.00,meteobridge,2013-04-18 20:23:00,
2013-04-18 14:28:00,49.5,2.3,30.04,West,279,8.1,14.1,14,0.00,,,0.00,meteobridge,2013-04-18 20:28:00,
2013-04-18 14:33:00,48.6,1.6,30.04,NNW,333,4.9,8.1,14,0.00,,,0.00,meteobridge,2013-04-18 20:33:00,
2013-04-18 14:38:00,48.2,2.7,30.04,West,281,2.0,11.0,15,0.00,,,0.00,meteobridge,2013-04-18 20:38:00,
2013-04-18 14:43:00,49.5,0.7,30.04,NW,306,8.1,10.1,13,0.00,,,0.00,meteobridge,2013-04-18 20:43:00,
2013-04-18 14:48:00,49.8,2.5,30.04,South,183,2.9,6.9,14,0.00,,,0.00,meteobridge,2013-04-18 20:48:00,
2013-04-18 14:53:00,50.7,0.0,30.04,NW,304,2.0,8.1,12,0.00,,,0.00,meteobridge,2013-04-18 20:53:00,
2013-04-18 14:58:00,50.9,-1.8,30.05,WSW,252,4.9,8.1,11,0.00,,,0.00,meteobridge,2013-04-18 20:58:00,
2013-04-18 15:03:00,50.7,-1.8,30.04,NW,322,6.0,11.0,11,0.00,,,0.00,meteobridge,2013-04-18 21:03:00,
2013-04-18 15:08:00,50.2,-0.6,30.04,NNW,338,8.1,10.1,12,0.00,,,0.00,meteobridge,2013-04-18 21:08:00,
2013-04-18 15:13:00,51.6,0.7,30.04,NW,304,4.0,10.1,12,0.00,,,0.00,meteobridge,2013-04-18 21:13:00,
2013-04-18 15:18:00,51.1,0.1,30.04,SSW,206,4.9,11.0,12,0.00,,,0.00,meteobridge,2013-04-18 21:18:00,
2013-04-18 15:23:00,50.9,0.1,30.04,NNW,345,4.9,14.1,12,0.00,,,0.00,meteobridge,2013-04-18 21:23:00,
2013-04-18 15:28:00,48.7,0.1,30.04,NNW,346,12.1,19.9,13,0.00,,,0.00,meteobridge,2013-04-18 21:28:00,
2013-04-18 15:33:00,48.6,0.0,30.04,NW,324,4.0,11.0,13,0.00,,,0.00,meteobridge,2013-04-18 21:33:00,
2013-04-18 15:38:00,48.4,1.4,30.04,WNW,292,6.0,10.1,14,0.00,,,0.00,meteobridge,2013-04-18 21:38:00,
2013-04-18 15:43:00,50.0,1.0,30.05,WNW,300,2.9,23.0,13,0.00,,,0.00,meteobridge,2013-04-18 21:43:00,
2013-04-18 15:48:00,48.6,1.6,30.05,WNW,302,4.9,10.1,14,0.00,,,0.00,meteobridge,2013-04-18 21:48:00,
2013-04-18 15:53:00,48.9,0.1,30.04,SW,234,4.0,14.1,13,0.00,,,0.00,meteobridge,2013-04-18 21:53:00,
2013-04-18 15:58:00,48.4,1.4,30.05,WSW,240,4.0,11.0,14,0.00,,,0.00,meteobridge,2013-04-18 21:58:00,
2013-04-18 16:03:00,49.1,-1.3,30.05,WSW,252,4.9,13.0,12,0.00,,,0.00,meteobridge,2013-04-18 22:03:00,
2013-04-18 16:08:00,48.9,1.8,30.05,West,280,4.9,12.1,14,0.00,,,0.00,meteobridge,2013-04-18 22:08:00,
2013-04-18 16:13:00,49.6,0.7,30.04,NW,323,4.9,13.0,13,0.00,,,0.00,meteobridge,2013-04-18 22:13:00,
2013-04-18 16:18:00,49.8,0.9,30.05,WNW,300,4.9,10.1,13,0.00,,,0.00,meteobridge,2013-04-18 22:18:00,
2013-04-18 16:23:00,49.3,0.5,30.05,WSW,239,8.9,8.9,13,0.00,,,0.00,meteobridge,2013-04-18 22:23:00,
2013-04-18 16:28:00,49.1,-3.3,30.05,WNW,296,2.0,11.0,11,0.00,,,0.00,meteobridge,2013-04-18 22:28:00,
2013-04-18 16:33:00,49.5,-1.1,30.05,WNW,286,2.9,8.1,12,0.00,,,0.00,meteobridge,2013-04-18 22:33:00,
2013-04-18 16:38:00,48.9,-1.5,30.05,WSW,238,4.9,6.9,12,0.00,,,0.00,meteobridge,2013-04-18 22:38:00,
2013-04-18 16:43:00,49.1,-1.3,30.05,SW,217,4.9,6.9,12,0.00,,,0.00,meteobridge,2013-04-18 22:43:00,
2013-04-18 16:48:00,49.8,-2.6,30.05,South,175,2.0,11.0,11,0.00,,,0.00,meteobridge,2013-04-18 22:48:00,
2013-04-18 16:53:00,49.6,-0.9,30.05,NNW,331,2.9,8.9,12,0.00,,,0.00,meteobridge,2013-04-18 22:53:00,
2013-04-18 16:58:00,49.6,-0.9,30.05,NNW,327,8.9,10.1,12,0.00,,,0.00,meteobridge,2013-04-18 22:58:00,
2013-04-18 17:03:00,49.8,0.9,30.06,NW,313,6.0,10.1,13,0.00,,,0.00,meteobridge,2013-04-18 23:03:00,
2013-04-18 17:08:00,49.5,-1.1,30.06,North,355,4.0,8.1,12,0.00,,,0.00,meteobridge,2013-04-18 23:08:00,
2013-04-18 17:13:00,49.3,0.5,30.06,NW,319,2.0,6.0,13,0.00,,,0.00,meteobridge,2013-04-18 23:13:00,
2013-04-18 17:18:00,49.5,0.7,30.06,NW,318,6.0,8.1,13,0.00,,,0.00,meteobridge,2013-04-18 23:18:00,
2013-04-18 17:23:00,49.3,0.5,30.06,NNE,15,4.0,6.9,13,0.00,,,0.00,meteobridge,2013-04-18 23:23:00,
2013-04-18 17:28:00,48.2,-0.4,30.07,NW,311,6.0,11.0,13,0.00,,,0.00,meteobridge,2013-04-18 23:28:00,
2013-04-18 17:33:00,48.9,0.1,30.07,WSW,254,8.1,12.1,13,0.00,,,0.00,meteobridge,2013-04-18 23:33:00,
2013-04-18 17:38:00,49.5,0.7,30.07,WNW,298,2.0,8.1,13,0.00,,,0.00,meteobridge,2013-04-18 23:38:00,
2013-04-18 17:43:00,48.9,-1.5,30.07,NW,317,4.9,14.1,12,0.00,,,0.00,meteobridge,2013-04-18 23:43:00,
2013-04-18 17:48:00,48.0,-2.2,30.08,NW,313,4.9,11.0,12,0.00,,,0.00,meteobridge,2013-04-18 23:48:00,
2013-04-18 17:53:00,48.0,-2.2,30.08,NW,309,2.0,6.0,12,0.00,,,0.00,meteobridge,2013-04-18 23:53:00,
2013-04-18 17:58:00,48.4,-1.8,30.08,WNW,294,4.9,8.1,12,0.00,,,0.00,meteobridge,2013-04-18 23:58:00,
2013-04-18 18:03:00,48.4,-0.2,30.09,NW,317,6.0,14.1,13,0.00,,,0.00,meteobridge,2013-04-19 00:03:00,
2013-04-18 18:08:00,48.0,-0.6,30.09,NW,314,6.9,8.9,13,0.00,,,0.00,meteobridge,2013-04-19 00:08:00,
2013-04-18 18:13:00,48.0,-0.6,30.09,NNW,341,6.9,8.9,13,0.00,,,0.00,meteobridge,2013-04-19 00:13:00,
2013-04-18 18:18:00,47.8,-0.6,30.09,North,355,8.1,8.1,13,0.00,,,0.00,meteobridge,2013-04-19 00:18:00,
2013-04-18 18:23:00,47.7,-2.6,30.09,NW,309,4.0,11.0,12,0.00,,,0.00,meteobridge,2013-04-19 00:23:00,
2013-04-18 18:28:00,47.7,-0.8,30.09,WNW,302,4.0,8.1,13,0.00,,,0.00,meteobridge,2013-04-19 00:28:00,
2013-04-18 18:33:00,47.5,-0.9,30.09,WNW,292,6.9,8.9,13,0.00,,,0.00,meteobridge,2013-04-19 00:33:00,
2013-04-18 18:38:00,47.1,-1.3,30.09,NNW,346,8.9,14.1,13,0.00,,,0.00,meteobridge,2013-04-19 00:38:00,
2013-04-18 18:43:00,46.9,-1.3,30.09,NNW,344,6.0,8.9,13,0.00,,,0.00,meteobridge,2013-04-19 00:43:00,
2013-04-18 18:48:00,46.9,-1.3,30.10,NNE,17,6.9,11.0,13,0.00,,,0.00,meteobridge,2013-04-19 00:48:00,
2013-04-18 18:53:00,46.6,-1.7,30.10,NW,307,2.0,8.9,13,0.00,,,0.00,meteobridge,2013-04-19 00:53:00,
2013-04-18 18:58:00,46.6,-1.7,30.10,WNW,298,2.9,11.0,13,0.00,,,0.00,meteobridge,2013-04-19 00:58:00,
2013-04-18 19:03:00,46.6,-1.7,30.10,WNW,300,2.9,12.1,13,0.00,,,0.00,meteobridge,2013-04-19 01:03:00,
2013-04-18 19:08:00,46.2,-2.0,30.11,NW,307,4.9,12.1,13,0.00,,,0.00,meteobridge,2013-04-19 01:08:00,
2013-04-18 19:13:00,46.0,-2.0,30.11,NW,319,4.0,10.1,13,0.00,,,0.00,meteobridge,2013-04-19 01:13:00,
2013-04-18 19:18:00,45.9,-2.2,30.11,NNW,340,6.0,6.9,13,0.00,,,0.00,meteobridge,2013-04-19 01:18:00,
2013-04-18 19:23:00,45.9,-2.2,30.11,West,280,2.9,10.1,13,0.00,,,0.00,meteobridge,2013-04-19 01:23:00,
2013-04-18 19:28:00,45.7,-0.8,30.12,WNW,300,2.9,10.1,14,0.00,,,0.00,meteobridge,2013-04-19 01:28:00,
2013-04-18 19:33:00,45.3,-1.1,30.12,WNW,289,2.9,8.9,14,0.00,,,0.00,meteobridge,2013-04-19 01:33:00,
2013-04-18 19:38:00,45.3,-1.1,30.12,WNW,284,4.0,6.9,14,0.00,,,0.00,meteobridge,2013-04-19 01:38:00,
2013-04-18 19:44:00,45.1,0.1,30.13,NW,321,2.0,4.9,15,0.00,,,0.00,meteobridge,2013-04-19 01:44:00,
2013-04-18 19:49:00,45.1,0.1,30.13,NW,321,6.9,16.1,15,0.00,,,0.00,meteobridge,2013-04-19 01:49:00,
2013-04-18 19:54:00,45.0,-1.5,30.13,WNW,301,2.0,6.0,14,0.00,,,0.00,meteobridge,2013-04-19 01:54:00,
2013-04-18 19:59:00,45.0,0.1,30.14,WNW,300,6.0,6.0,15,0.00,,,0.00,meteobridge,2013-04-19 01:59:00,
2013-04-18 20:04:00,44.8,0.0,30.14,North,351,2.0,4.9,15,0.00,,,0.00,meteobridge,2013-04-19 02:04:00,
2013-04-18 20:09:00,44.6,-0.2,30.14,NW,324,4.9,6.0,15,0.00,,,0.00,meteobridge,2013-04-19 02:09:00,
2013-04-18 20:14:00,44.4,-0.4,30.14,West,277,4.0,6.0,15,0.00,,,0.00,meteobridge,2013-04-19 02:14:00,
2013-04-18 20:19:00,44.2,0.9,30.15,WSW,254,2.0,6.0,16,0.00,,,0.00,meteobridge,2013-04-19 02:19:00,
2013-04-18 20:24:00,44.2,0.9,30.15,WNW,302,2.0,6.9,16,0.00,,,0.00,meteobridge,2013-04-19 02:24:00,
2013-04-18 20:29:00,44.1,0.7,30.15,NW,318,2.9,8.1,16,0.00,,,0.00,meteobridge,2013-04-19 02:29:00,
2013-04-18 20:34:00,43.9,0.5,30.16,NW,304,2.9,6.0,16,0.00,,,0.00,meteobridge,2013-04-19 02:34:00,
2013-04-18 20:39:00,43.9,0.5,30.16,NW,314,4.0,8.9,16,0.00,,,0.00,meteobridge,2013-04-19 02:39:00,
2013-04-18 20:44:00,43.7,0.5,30.16,NW,315,4.0,6.0,16,0.00,,,0.00,meteobridge,2013-04-19 02:44:00,
2013-04-18 20:49:00,43.5,0.3,30.17,West,279,4.9,6.0,16,0.00,,,0.00,meteobridge,2013-04-19 02:49:00,
2013-04-18 20:54:00,43.5,0.3,30.17,NNW,342,2.0,6.9,16,0.00,,,0.00,meteobridge,2013-04-19 02:54:00,
2013-04-18 20:59:00,43.3,0.1,30.17,North,349,4.0,6.0,16,0.00,,,0.00,meteobridge,2013-04-19 02:59:00,
2013-04-18 21:04:00,43.2,1.2,30.18,NW,313,2.9,6.9,17,0.00,,,0.00,meteobridge,2013-04-19 03:04:00,
2013-04-18 21:09:00,43.2,1.2,30.19,NNW,328,2.9,6.0,17,0.00,,,0.00,meteobridge,2013-04-19 03:09:00,
2013-04-18 21:14:00,43.0,1.0,30.19,NW,309,4.9,8.1,17,0.00,,,0.00,meteobridge,2013-04-19 03:14:00,
2013-04-18 21:19:00,43.0,1.0,30.19,WNW,291,2.9,6.9,17,0.00,,,0.00,meteobridge,2013-04-19 03:19:00,
2013-04-18 21:24:00,43.0,2.3,30.19,West,269,4.0,4.9,18,0.00,,,0.00,meteobridge,2013-04-19 03:24:00,
2013-04-18 21:29:00,42.6,2.1,30.19,West,261,2.9,6.0,18,0.00,,,0.00,meteobridge,2013-04-19 03:29:00,
2013-04-18 21:34:00,42.4,1.9,30.20,NW,325,2.9,4.9,18,0.00,,,0.00,meteobridge,2013-04-19 03:34:00,
2013-04-18 21:39:00,42.4,1.9,30.20,NW,311,2.0,4.0,18,0.00,,,0.00,meteobridge,2013-04-19 03:39:00,
2013-04-18 21:44:00,42.3,1.8,30.20,NW,306,4.0,4.9,18,0.00,,,0.00,meteobridge,2013-04-19 03:44:00,
2013-04-18 21:49:00,42.1,2.8,30.21,NNW,340,2.9,4.9,19,0.00,,,0.00,meteobridge,2013-04-19 03:49:00,
2013-04-18 21:54:00,41.9,2.7,30.21,NW,318,2.0,4.0,19,0.00,,,0.00,meteobridge,2013-04-19 03:54:00,
2013-04-18 21:59:00,41.7,2.5,30.21,West,279,2.9,6.0,19,0.00,,,0.00,meteobridge,2013-04-19 03:59:00,
2013-04-18 22:01:00,41.7,2.5,30.21,NNW,338,4.0,4.0,19,0.00,,,0.00,meteobridge,2013-04-19 04:01:00,
2013-04-18 22:02:00,41.7,2.5,30.21,North,355,2.9,6.0,19,0.00,,,0.00,meteobridge,2013-04-19 04:02:00,
2013-04-18 22:04:00,41.7,2.5,30.21,NW,312,2.9,4.0,19,0.00,,,0.00,meteobridge,2013-04-19 04:04:00,
2013-04-18 22:09:00,41.5,2.3,30.21,NW,324,0.9,4.0,19,0.00,,,0.00,meteobridge,2013-04-19 04:09:00,
2013-04-18 22:14:00,41.4,2.1,30.21,WNW,294,2.0,4.9,19,0.00,,,0.00,meteobridge,2013-04-19 04:14:00,
2013-04-18 22:19:00,41.4,3.2,30.21,NNW,329,0.0,4.0,20,0.00,,,0.00,meteobridge,2013-04-19 04:19:00,
2013-04-18 22:25:00,41.2,3.2,30.21,NNW,341,0.0,2.9,20,0.00,,,0.00,meteobridge,2013-04-19 04:25:00,
2013-04-18 22:30:00,40.8,2.8,30.21,NNW,331,0.0,2.0,20,0.00,,,0.00,meteobridge,2013-04-19 04:30:00,
2013-04-18 22:35:00,40.6,2.7,30.21,WNW,303,0.0,4.9,20,0.00,,,0.00,meteobridge,2013-04-19 04:35:00,
2013-04-18 22:40:00,40.6,3.7,30.21,NW,319,0.9,2.9,21,0.00,,,0.00,meteobridge,2013-04-19 04:40:00,
2013-04-18 22:45:00,40.6,3.7,30.21,WNW,284,0.0,2.0,21,0.00,,,0.00,meteobridge,2013-04-19 04:45:00,
2013-04-18 22:50:00,40.3,3.4,30.21,NW,326,2.0,2.9,21,0.00,,,0.00,meteobridge,2013-04-19 04:50:00,
2013-04-18 22:55:00,40.3,3.4,30.21,NNW,333,0.0,0.9,21,0.00,,,0.00,meteobridge,2013-04-19 04:55:00,
2013-04-18 23:00:00,39.7,3.9,30.22,NNW,333,0.0,0.0,22,0.00,,,0.00,meteobridge,2013-04-19 05:00:00,
2013-04-18 23:05:00,39.0,4.3,30.22,NW,313,2.0,2.0,23,0.00,,,0.00,meteobridge,2013-04-19 05:05:00,
2013-04-18 23:10:00,39.4,3.7,30.22,NW,323,0.0,6.0,22,0.00,,,0.00,meteobridge,2013-04-19 05:10:00,
2013-04-18 23:15:00,39.7,3.9,30.22,NE,55,0.0,6.9,22,0.00,,,0.00,meteobridge,2013-04-19 05:15:00,
2013-04-18 23:20:00,39.7,3.9,30.22,NNW,334,0.9,2.9,22,0.00,,,0.00,meteobridge,2013-04-19 05:20:00,
2013-04-18 23:25:00,39.7,3.9,30.22,NNE,28,2.9,6.0,22,0.00,,,0.00,meteobridge,2013-04-19 05:25:00,
2013-04-18 23:30:00,39.9,4.1,30.22,North,350,4.0,4.9,22,0.00,,,0.00,meteobridge,2013-04-19 05:30:00,
2013-04-18 23:35:00,39.9,4.1,30.23,North,350,8.9,14.1,22,0.00,,,0.00,meteobridge,2013-04-19 05:35:00,
2013-04-18 23:40:00,40.1,4.3,30.23,NNW,331,0.9,4.9,22,0.00,,,0.00,meteobridge,2013-04-19 05:40:00,
2013-04-18 23:45:00,39.9,4.1,30.23,NNW,347,0.9,4.0,22,0.00,,,0.00,meteobridge,2013-04-19 05:45:00,
2013-04-18 23:50:00,39.7,3.9,30.23,NNW,341,0.0,4.0,22,0.00,,,0.00,meteobridge,2013-04-19 05:50:00,
2013-04-18 23:55:00,39.4,3.7,30.23,NNW,335,2.9,2.9,22,0.00,,,0.00,meteobridge,2013-04-19 05:55:00,